www.pogodaiklimat.ru
ПОГОДА в Гюмри

Архив погоды в Гюмри (Армения)

Время
(UTC), дата
16 18.09
17 18.09
18 18.09
19 18.09
20 18.09
21 18.09
22 18.09
23 18.09
00 19.09
01 19.09
02 19.09
03 19.09
04 19.09
05 19.09
06 19.09
07 19.09
08 19.09
09 19.09
10 19.09
11 19.09
12 19.09
13 19.09
14 19.09
15 19.09
16 19.09
17 19.09
18 19.09
19 19.09
20 19.09
21 19.09
22 19.09
23 19.09
00 20.09
01 20.09
02 20.09
03 20.09
04 20.09
05 20.09
06 20.09
07 20.09
08 20.09
09 20.09
10 20.09
11 20.09
12 20.09
13 20.09
14 20.09
15 20.09
16 20.09
17 20.09
18 20.09
19 20.09
20 20.09
21 20.09
22 20.09
23 20.09
00 21.09
01 21.09
02 21.09
03 21.09
04 21.09
05 21.09
08 21.09
09 21.09
10 21.09
11 21.09
12 21.09
13 21.09
14 21.09
15 21.09
16 21.09
17 21.09
18 21.09
19 21.09
20 21.09
21 21.09
22 21.09
23 21.09
00 22.09
01 22.09
02 22.09
03 22.09
04 22.09
05 22.09
06 22.09
07 22.09
08 22.09
09 22.09
10 22.09
11 22.09
12 22.09
13 22.09
14 22.09
15 22.09
16 22.09
17 22.09
18 22.09
19 22.09
20 22.09
21 22.09
22 22.09
23 22.09
00 23.09
01 23.09
02 23.09
03 23.09
04 23.09
05 23.09
06 23.09
07 23.09
08 23.09
09 23.09
10 23.09
11 23.09
12 23.09
13 23.09
14 23.09
15 23.09
16 23.09
17 23.09
18 23.09
19 23.09
20 23.09
21 23.09
22 23.09
23 23.09
00 24.09
01 24.09
02 24.09
03 24.09
04 24.09
05 24.09
06 24.09
07 24.09
08 24.09
09 24.09
10 24.09
11 24.09
12 24.09
13 24.09
14 24.09
15 24.09
16 24.09
17 24.09
18 24.09
19 24.09
20 24.09
21 24.09
22 24.09
23 24.09
00 25.09
01 25.09
02 25.09
03 25.09
04 25.09
05 25.09
06 25.09
07 25.09
08 25.09
09 25.09
10 25.09
11 25.09
12 25.09
13 25.09
14 25.09
15 25.09
16 25.09
Ветер
(напр.,м/с)
Видим. Явления Облачность Т
(С)
Тd
(С)
f
(%)
Тe
(С)
Тes
(С)
Комфортность P
(гПа)
Po
(гПа)
Тmin
(С)
Tmax
(С)
R
(мм)
R24
(мм)
S
(см)
нст 1 10 км нет нижн обл +24.0 +5.0 29 +24 +24 комфорт 1018.0 852.5
ЮВ 2 10 км нет нижн обл +20.0 +6.0 40 +21 +21 комфорт 1018.0 850.4
штиль 0 10 км нет нижн обл +20.0 +7.0 43 +21 +21 комфорт 1018.0 850.4
В 2 10 км нет нижн обл +17.0 +5.0 45 +17 +17 тепло 1018.0 848.8
В 2 10 км нет нижн обл +17.0 +5.0 45 +17 +17 тепло 1018.0 848.8
штиль 0 10 км нет нижн обл +17.0 +2.0 36 +17 +17 тепло 1018.0 848.7
нст 1 10 км нет нижн обл +15.0 +4.0 48 +16 +16 тепло 1018.0 847.6
СВ 1 10 км нет нижн обл +12.0 +3.0 54 +12 +12 по сезону 1017.0 845.1
нст 1 10 км нет нижн обл +11.0 +5.0 66 +11 +11 тепло 1018.0 845.5
ЮЗ 2 10 км нет нижн обл +11.0 +4.0 62 +10 +10 тепло 1018.0 845.4
нст 1 10 км нет нижн обл +12.0 +4.0 58 +12 +12 тепло 1018.0 846.0
нст 1 10 км нет нижн обл +9.0 +4.0 71 +9 +9 по сезону 1018.0 844.3
штиль 0 10 км нет нижн обл +13.0 +5.0 58 +13 +13 тепло 1018.0 846.6
штиль 0 10 км нет нижн обл +17.0 +4.0 42 +17 +17 тепло 1018.0 848.7
Ю 1 10 км нет нижн обл +20.0 +4.0 35 +22 +22 комфорт 1018.0 850.3
нст 1 10 км нет нижн обл +23.0 +4.0 29 +23 +23 комфорт 1018.0 851.9
З 2 10 км нет нижн обл +27.0 +3.0 21 +25 +25 комфорт 1018.0 853.9
З 1 10 км 2/2 1470 м +28.0 +2.0 19 +26 +26 жарко 1017.0 853.6
ЮЗ 2 10 км 2/2 1470 м +30.0 0.0 14 +27 +27 жарко 1016.0 853.7
Ю 4 10 км 2/2 1470 м +31.0 -3.0 11 +28 +28 жарко 1015.0 853.3
ЮЗ 3 10 км 2/2 1470 м +31.0 -4.0 10 +27 +27 жарко 1015.0 853.3
ЮЗ 4 10 км 2/2 1470 м +30.0 -3.0 12 +27 +27 жарко 1015.0 852.8
Ю 5 10 км 2/2 1470 м +29.0 -3.0 12 +26 +26 жарко 1015.0 852.3
В 2 10 км 2/2 1470 м +25.0 0.0 19 +23 +23 комфорт 1015.0 850.3
В 5 10 км 2/2 1470 м +23.0 +8.0 38 +24 +24 комфорт 1016.0 850.4
В 2 10 км 2/2 1470 м +22.0 +9.0 43 +23 +23 комфорт 1017.0 850.8
нст 1 10 км нет нижн обл +20.0 +9.0 49 +22 +22 комфорт 1017.0 849.7
нст 1 10 км нет нижн обл +21.0 +8.0 43 +23 +23 комфорт 1017.0 850.2
В 6 10 км нет нижн обл +20.0 +8.0 46 +21 +21 комфорт 1017.0 849.7
СВ 2 10 км нет нижн обл +20.0 +8.0 46 +22 +22 комфорт 1017.0 849.7
СВ 7 10 км нет нижн обл +19.0 +9.0 52 +19 +19 тепло 1017.0 849.2
В 4 10 км нет нижн обл +18.0 +9.0 56 +18 +18 тепло 1017.0 848.6
В 4 10 км нет нижн обл +17.0 +9.0 59 +17 +17 тепло 1017.0 848.1
В 5 10 км нет нижн обл +17.0 +10.0 63 +16 +16 тепло 1017.0 848.1
В 4 10 км нет нижн обл +17.0 +9.0 59 +17 +17 тепло 1017.0 848.1
В 3 10 км нет нижн обл +16.0 +9.0 63 +16 +16 по сезону 1018.0 848.4
ЮЗ 2 10 км нет нижн обл +14.0 +8.0 67 +14 +14 прохладно 1018.0 847.2
ЮЗ 1 10 км нет нижн обл +17.0 +8.0 55 +18 +18 тепло 1019.0 849.7
нст 1 10 км нет нижн обл +21.0 +8.0 43 +23 +23 комфорт 1019.0 851.9
З 1 10 км нет нижн обл +24.0 +5.0 29 +24 +24 комфорт 1018.0 852.5
ЮЗ 2 10 км нет нижн обл +25.0 +3.0 24 +24 +24 комфорт 1018.0 852.9
З 3 10 км нет нижн обл +28.0 -3.0 13 +25 +25 комфорт 1017.0 853.5
ЮЗ 4 10 км нет нижн обл +28.0 -3.0 13 +25 +25 комфорт 1017.0 853.5
ЮЗ 4 10 км нет нижн обл +29.0 -4.0 11 +26 +26 жарко 1016.0 853.1
Ю 3 10 км 2/2 1470 м +28.0 -7.0 10 +25 +25 комфорт 1015.0 851.7
З 2 10 км 2/2 1470 м +28.0 -5.0 11 +25 +25 комфорт 1015.0 851.7
Ю 4 10 км 5/5 1380 м +27.0 -5.0 12 +24 +24 комфорт 1015.0 851.2
ЮЗ 7-12 10 км 8/8 1290 м +25.0 -4.0 14 +23 +23 комфорт 1016.0 851.1
ЮЗ 3 10 км 8/8 1290 м +23.0 -1.0 20 +22 +22 комфорт 1016.0 850.1
СЗ 1 10 км 5/5 1290 м +23.0 -1.0 20 +22 +22 комфорт 1017.0 850.9
нст 1 10 км 5/5 1380 м +20.0 0.0 26 +21 +21 комфорт 1018.0 850.2
СВ 3 10 км 5/5 1380 м +20.0 +6.0 40 +21 +21 комфорт 1018.0 850.4
нст 1 10 км 2/2 1470 м +17.0 +5.0 45 +18 +18 прохладно 1018.0 848.8
В 5 10 км 2/2 1470 м +18.0 +6.0 45 +18 +18 тепло 1017.0 848.5
З 1 10 км 2/2 1470 м +16.0 +7.0 55 +17 +17 по сезону 1017.0 847.5
нст 3 10 км 2/2 1470 м +16.0 +9.0 63 +16 +16 по сезону 1017.0 847.6
нст 1 10 км 2/2 1470 м +15.0 +7.0 59 +16 +16 по сезону 1017.0 846.9
ЮЗ 2 10 км 2/2 1470 м +14.0 +8.0 67 +14 +14 по сезону 1017.0 846.4
штиль 0 10 км 2/2 1470 м +15.0 +8.0 63 +15 +15 по сезону 1016.0 846.1
ЮВ 1 10 км 2/2 1470 м +14.0 +7.0 63 +14 +14 прохладно 1017.0 846.4
ЮЗ 2 10 км 2/2 1470 м +13.0 +5.0 58 +12 +12 холодно 1017.0 845.7
Ю 1 10 км 2/2 1470 м +16.0 +4.0 45 +17 +17 по сезону 1017.0 847.4
З 5 10 км 5/5 1290 м +25.0 +2.0 22 +24 +24 комфорт 1015.0 850.4
СЗ 3 10 км 5/5 1290 м +27.0 +2.0 20 +25 +25 комфорт 1015.0 851.4
нст 1 10 км 5/5 1290 м +27.0 -2.0 15 +25 +25 комфорт 1014.0 850.5
нст 1 10 км 5/5 1290 м +27.0 -2.0 15 +25 +25 комфорт 1013.0 849.6
Ю 8 10 км 8/8 1200 м +28.0 -3.0 13 +25 +25 комфорт 1013.0 850.1
ЮВ 9 10 км 8/8 1200 м +27.0 -3.0 14 +24 +24 комфорт 1013.0 849.6
В 5 н/о гроза без осадков 8/8 1200 м
[Cb]
+26.0 -3.0 15 +24 +24 комфорт 1013.0 849.1
ЮВ 8-13 10 км 5/5 1200 м +24.0 -1.0 19 +23 +23 комфорт 1013.0 848.1
ЮВ 2 10 км 5/5 1290 м +23.0 -1.0 20 +22 +22 комфорт 1013.0 847.6
СВ 2 10 км 5/5 1290 м +22.0 -1.0 21 +21 +21 комфорт 1013.0 847.1
СВ 2 10 км 5/5 1290 м +22.0 0.0 23 +21 +21 комфорт 1013.0 847.1
З 3 н/о гроза без осадков 5/5 1290 м
[Cb]
+21.0 +1.0 26 +21 +21 комфорт 1014.0 847.4
ЮЗ 6-12 н/о гроза без осадков 5/5 1290 м
[Cb]
+21.0 +1.0 26 +21 +21 комфорт 1014.0 847.4
нст 1 10 км 5/5 1290 м +19.0 +1.0 30 +20 +20 тепло 1014.0 846.4
В 5 10 км 5/5 1290 м +21.0 +2.0 28 +21 +21 комфорт 1014.0 847.5
З 3 10 км 5/5 1290 м +19.0 +3.0 34 +19 +19 тепло 1014.0 846.4
ЮЗ 4-9 10 км гроза без осадков 8/8 1290 м
[Cb]
+19.0 +3.0 34 +19 +19 тепло 1014.0 846.4
З 6-12 н/о гроза без осадков 8/8 990 м
[Cb]
+15.0 +6.0 55 +13 +13 по сезону 1016.0 846.0
З 3 10 км 8/8 1200 м +14.0 +7.0 63 +13 +13 по сезону 1017.0 846.4
СВ 2 10 км слаб. ливневой дождь 8/8 990 м
[Cb]
+12.0 +10.0 88 +11 +11 холодно 1018.0 846.2
СВ 3 10 км 8/8 1200 м +13.0 +11.0 88 +12 +12 холодно 1017.0 846.0
С 2 10 км гроза без осадков 8/8 1200 м
[Cb]
+15.0 +10.0 72 +15 +15 прохладно 1016.0 846.2
В 1 9000 м гроза без осадков 8/8 1200 м
[Cb]
+17.0 +9.0 59 +18 +18 по сезону 1016.0 847.3
Ю 4 н/о гроза без осадков 8/8 1200 м
[Cb]
+15.0 +7.0 59 +14 +14 холодно 1017.0 846.9
ЮВ 11-16 н/о гроза без осадков 8/8 1200 м
[Cb]
+14.0 +7.0 63 +11 +11 очень
холодно
1017.0 846.4
ЮЗ 4 н/о гроза без осадков 8/8 1290 м
[Cb]
+15.0 +8.0 63 +14 +14 очень
холодно
1018.0 847.8
ЮВ 2 10 км 8/8 1290 м +14.0 +9.0 72 +14 +14 очень
холодно
1018.0 847.3
В 5 10 км 8/8 1380 м +15.0 +9.0 67 +14 +14 очень
холодно
1017.0 847.0
В 2 10 км 5/5 1380 м +17.0 +7.0 52 +17 +17 очень
холодно
1016.0 847.2
нст 1 н/о гроза без осадков 5/5 1380 м
[Cb]
+19.0 +6.0 43 +21 +21 комфорт 1016.0 848.2
ЮЗ 2 н/о гроза без осадков 8/8 1290 м
[Cb]
+12.0 +8.0 76 +11 +11 очень
холодно
1018.0 846.1
СВ 3 10 км 8/8 1290 м +12.0 +10.0 88 +10 +10 очень
холодно
1017.0 845.4
ЮЗ 2 10 км 8/8 1290 м +12.0 +9.0 82 +11 +11 очень
холодно
1018.0 846.2
Ю 3 10 км слаб. ливневой дождь 8/8 1200 м
[Cb]
+13.0 +8.0 72 +12 +12 очень
холодно
1018.0 846.7
нст 4 10 км 8/8 1080 м +14.0 +7.0 63 +13 +13 холодно 1017.0 846.4
ЮЗ 4 10 км 8/8 1080 м +13.0 +7.0 67 +11 +11 очень
холодно
1019.0 847.5
Ю 6 10 км слаб. ливневой дождь 8/8 1080 м
[Cb]
+13.0 +8.0 72 +11 +11 очень
холодно
1018.0 846.7
СЗ 2 10 км слаб. ливневой дождь 8/8 1080 м
[Cb]
+12.0 +8.0 76 +11 +11 холодно 1017.0 845.3
С 2 10 км 8/8 1290 м +12.0 +8.0 76 +11 +11 холодно 1016.0 844.5
З 4 10 км слаб. ливневой дождь 8/8 1200 м
[Cb]
+12.0 +9.0 82 +10 +10 очень
холодно
1018.0 846.2
В 1 н/о гроза без осадков 8/8 1080 м
[Cb]
+11.0 +10.0 94 +11 +11 прохладно 1018.0 845.7
ЮВ 2 10 км гроза без осадков 8/8 1080 м
[Cb]
+11.0 +10.0 94 +10 +10 прохладно 1016.0 844.0
нст 1 н/о гроза без осадков 8/8 1080 м
[Cb]
+11.0 +9.0 87 +11 +11 прохладно 1016.0 844.0
ЮВ 2 10 км 8/8 1290 м +9.0 +8.0 93 +7 +7 очень
холодно
1016.0 842.8
В 1 10 км 5/5 1380 м +11.0 +10.0 94 +11 +11 холодно 1017.0 844.8
штиль 0 10 км 2/2 1470 м +13.0 +9.0 77 +13 +13 прохладно 1016.0 845.1
штиль 0 10 км 2/2 1470 м +16.0 +9.0 63 +16 +16 прохладно 1016.0 846.7
нст 1 10 км 2/2 1470 м +17.0 +8.0 55 +18 +18 по сезону 1017.0 848.0
ЮЗ 2 10 км 2/2 1470 м +19.0 +9.0 52 +20 +20 по сезону 1016.0 848.3
Ю 7 10 км 5/5 1470 м +21.0 +4.0 33 +21 +21 комфорт 1016.0 849.2
Ю 8 10 км 5/5 1470 м +22.0 +3.0 29 +22 +22 комфорт 1015.0 848.9
ЮЗ 2 н/о гроза без осадков 8/8 1290 м
[Cb]
+19.0 +8.0 49 +20 +20 прохладно 1016.0 848.3
Ю 6 10 км гроза без осадков 5/5 1290 м
[Cb]
+22.0 +3.0 29 +22 +22 комфорт 1015.0 848.9
Ю 9 10 км 5/5 1290 м +22.0 +2.0 27 +22 +22 комфорт 1015.0 848.8
З 2 10 км 8/8 1200 м +18.0 +5.0 42 +19 +19 холодно 1016.0 847.6
нст 3 10 км 8/8 1200 м +16.0 +7.0 55 +16 +16 холодно 1016.0 846.6
СЗ 4 10 км 5/5 1470 м +14.0 +6.0 59 +13 +13 очень
холодно
1017.0 846.3
СВ 1 10 км 2/2 1470 м +12.0 +6.0 67 +12 +12 очень
холодно
1018.0 846.1
нст 1 10 км 2/2 1470 м +11.0 +6.0 71 +11 +11 очень
холодно
1018.0 845.5
нст 1 10 км 2/2 1470 м +10.0 +6.0 76 +10 +10 очень
холодно
1018.0 844.9
В 1 10 км 2/2 1470 м +8.0 +5.0 81 +7 +7 очень
холодно
1018.0 843.8
В 1 10 км 2/2 1470 м +8.0 +6.0 87 +7 +7 очень
холодно
1019.0 844.6
СВ 1 10 км 2/2 1470 м +7.0 +5.0 87 +6 +6 очень
холодно
1019.0 844.0
С 1 10 км 2/2 1470 м +6.0 +5.0 93 +5 +5 очень
холодно
1019.0 843.4
В 1 10 км 2/2 1470 м +6.0 +5.0 93 +5 +5 очень
холодно
1018.0 842.6
штиль 0 10 км 2/2 1470 м +6.0 +5.0 93 1019.0 843.4
В 1 10 км 2/2 1470 м +5.0 +4.0 93 +4 +4 очень
холодно
1019.0 842.8
В 2 10 км 2/2 1470 м +5.0 +4.0 93 +2 +2 очень
холодно
1019.0 842.8
штиль 0 10 км нет нижн обл +7.0 +5.0 87 1019.0 844.0
штиль 0 10 км 2/2 1470 м +11.0 +7.0 76 1019.0 846.4
штиль 0 10 км 2/2 1470 м +14.0 +7.0 63 +14 +14 холодно 1019.0 848.0
нст 1 10 км 5/5 1380 м +16.0 +8.0 59 +17 +17 прохладно 1018.0 848.3
ЮЗ 4 10 км 5/5 1290 м +19.0 +5.0 40 +19 +19 по сезону 1018.0 849.8
Ю 9 10 км 8/8 1290 м +19.0 +4.0 37 +18 +18 прохладно 1017.0 849.0
ЮЗ 6 10 км 8/8 1290 м +18.0 +5.0 42 +17 +17 холодно 1017.0 848.5
Ю 6 10 км 8/8 1290 м +18.0 +5.0 42 +17 +17 холодно 1017.0 848.5
Ю 5 10 км 8/8 1290 м +18.0 +5.0 42 +18 +18 очень
холодно
1016.0 847.6
ЮЗ 5 10 км 8/8 1290 м +18.0 +6.0 45 +18 +18 очень
холодно
1016.0 847.7
З 4 10 км 8/8 1200 м +17.0 +8.0 55 +17 +17 очень
холодно
1016.0 847.2
З 3 10 км слаб. ливневой дождь 8/8 1200 м
[Cb]
+16.0 +8.0 59 +16 +16 холодно 1016.0 846.7
З 4 10 км слаб. ливневой дождь 8/8 1200 м
[Cb]
+14.0 +9.0 72 +13 +13 очень
холодно
1017.0 846.5
С 3 10 км 8/8 1200 м +12.0 +6.0 67 +11 +11 очень
холодно
1019.0 846.9
С 4-10 10 км 8/8 1200 м +10.0 +3.0 62 +8 +8 очень
холодно
1019.0 845.7
С 5-10 10 км слаб. ливневой дождь 8/8 1200 м
[Cb]
+7.0 +3.0 76 +3 +3 очень
холодно
1021.0 845.6
нст 1 10 км слаб. ливневой дождь 8/8 1200 м
[Cb]
+8.0 +3.0 71 +7 +7 очень
холодно
1022.0 847.0
штиль 0 10 км 2/2 1380 м +7.0 +3.0 76 +5 +5 очень
холодно
1022.0 846.4
СВ 3 10 км 2/2 1470 м +7.0 +2.0 70 +4 +4 очень
холодно
1022.0 846.4
З 2 10 км 2/2 1470 м +6.0 +1.0 70 +4 +4 очень
холодно
1022.0 845.8
Ю 1 10 км 2/2 1470 м +4.0 +1.0 81 +3 +3 очень
холодно
1022.0 844.6
Ю 1 10 км 2/2 1470 м +4.0 +2.0 87 +3 +3 очень
холодно
1022.0 844.6
СВ 1 10 км нет нижн обл +2.0 +1.0 93 0 0 очень
холодно
1023.0 844.2
нст 1 10 км нет нижн обл +2.0 +1.0 93 0 0 очень
холодно
1023.0 844.2
нст 1 10 км нет нижн обл +4.0 +2.0 87 +3 +3 очень
холодно
1024.0 846.3
Ю 1 10 км нет нижн обл +7.0 +3.0 76 +6 +6 очень
холодно
1024.0 848.1
нст 1 10 км нет нижн обл +10.0 +1.0 54 +10 +10 очень
холодно
1025.0 850.6
ЮЗ 2 10 км нет нижн обл +11.0 0.0 47 +10 +10 очень
холодно
1024.0 850.3
Ю 2 10 км нет нижн обл +12.0 +1.0 47 +11 +11 очень
холодно
1024.0 850.9
З 2 10 км 2/2 1470 м +14.0 +1.0 41 +14 +14 очень
холодно
1024.0 852.0
Ю 2 10 км 2/2 1470 м +15.0 +1.0 39 +15 +15 холодно 1023.0 851.7
нст 2 10 км 2/2 1470 м +17.0 0.0 32 +17 +17 холодно 1023.0 852.8
С 3 10 км 2/2 1470 м +16.0 0.0 34 +16 +16 очень
холодно
1023.0 852.2
СЗ 4 10 км 2/2 1470 м +16.0 0.0 34 +15 +15 очень
холодно
1023.0 852.2
С 3 10 км 2/2 1470 м +16.0 -1.0 31 +16 +16 очень
холодно
1024.0 853.0
СЗ 4 10 км нет нижн обл +13.0 0.0 41 +12 +12 очень
холодно
1024.0 851.4
С 3 10 км нет нижн обл +11.0 +1.0 50 +10 +10 очень
холодно
1025.0 851.1
Местоположение метеостанции Гюмри (Армения): широта 40.75 долгота 43.86 высота над уровнем моря 1524 м.
В архиве по умолчанию представлена погода в Гюмри за последнюю неделю. Архивные данные за месяц целиком и за предыдущие месяцы, начиная с января 2011 года, Вы можете получить, выбрав интересующий диапазон дат из раскрывающегося списка и нажав кнопку "Найти!".
*Определитесь, кто Вы:
Внимание! Время в таблицах - всемирное. Для получения местного времени необходимо прибавить поправку, которая равна 4 ч.
Смотрите также архив погоды в соседних городах и на ближайших метеорологических станциях:
Партнеры нашего сайта:      
Пояснения к столбцам:
  • Ветер - указаны скорость ветра в м/с - средняя за 10 мин, порывы в срок и между сроками (в фигурных скобках) и направление, откуда дует ветер: С - северный,
  • СВ - северо-восточный, В - восточный, ЮВ - юго-восточный, Ю - южный, ЮЗ - юго-западный, З - западный, СЗ - северо-западный.
  • Видимость - горизонтальная дальность видимости в метрах или километрах. При видимости от 1 до 10 км при отсутствии осадков обычно наблюдается дымка, при ухудшении видимости до 1 км и менее - туман. В сухую погоду видимость может ухудшаться дымом, пылью или мглою.
  • Явления - указаны атмосферные явления, наблюдавшиеся в срок или в последний час перед сроком; фигурными скобками обозначены явления, наблюдавшиеся между сроками (за 1-3 часа до срока); квадратными скобками обозначены град или гололедные отложения с указанием их диаметра в мм.
  • Облачность - указаны через наклонную черту общая и нижняя облачность в баллах и высота нижней границы облаков в метрах; квадратными скобками обозначены формы облаков: Ci - перистые, Cs - перисто-слоистые, Cc - перисто-кучевые, Ac - высококучевые, As - высокослоистые, Sc - слоисто-кучевые, Ns - слоисто-дождевые, Cu - кучевые, Cb - кучево-дождевые. Подробнее классификацию облаков см. в Атласе облаков (PDF).
  • T - Температура воздуха - температура, измеренная на высоте 2 м над землей.
  • Td - Температура точки росы - температура, при понижении до которой содержащийся в воздухе водяной пар достигнет насыщения.
  • f - Относительная влажность воздуха - влажноcть воздуха, измеренная на высоте 2 м над землей.
  • Te - Эффективная температура - температура, которую ощущает одетый по сезону человек в тени. Характеристика душности погоды. При расчете учитывается влияние влажности воздуха и скорости ветра на теплоощущения человека.
  • Tes - Эффективная температура на солнце - температура, которую ощущает человек, с поправкой на солнечный нагрев. Характеристика знойности погоды. Зависит от высоты солнца над горизонтом, облачности и скорости ветра. Ночью, в пасмурную погоду, а также при ветре 12 м/с и более поправка равна нулю.
  • P - Атмосферное давление - приведенное к уровню моря атмосферное давление.
  • Po - Атмосферное давление - измеренное на уровне метеостанции атмосферное давление.
  • Tmin - Минимальная температура - минимум температуры воздуха на высоте 2 м над землей.
  • Tmax - Максимальная температура - максимум температуры воздуха на высоте 2 м над землей.
  • R - Количество осадков - Количество выпавших осадков за период времени, мм. При наведении курсора мыши на число - период времени, за который выпало указанное количество осадков.
  • R24 - Количество осадков - Количество выпавших осадков за 24 часа, мм.
  • S - Снежный покров - Высота снежного покрова, см. При наведении курсора мыши на число - состояние снежного покрова и степень покрытия местности в баллах.